Tracking 23731 objects as of 26-Sep-2021
HD Live streaming from Space Station
objects crossing your sky now

STARLINK-2301

Track STARLINK-2301 now!
10-day predictions
STARLINK-2301 is classified as:


NORAD ID: 48021
Int'l Code: 2021-024AW
Perigee: 544.4 km
Apogee: 547.1 km
Inclination: 53.0 °
Period: 95.4 minutes
Semi major axis: 6916 km
RCS: Unknown
Launch date: March 24, 2021
Source: United States (US)
Launch site: AIR FORCE EASTERN TEST RANGE (AFETR)
aabbcc
Your satellite tracking list
Your tracking list is empty




NASA's NSSDC Master Catalog

Two Line Element Set (TLE):
1 48021U 21024AW  21267.61581052 -.00317737  00000-0 -20626-1 0  9997
2 48021  53.0486  15.8321 0001951  73.5868 286.5337 15.09225376 30182
Source of the keplerian elements: AFSPC